Find Starlink 5451

NORAD ID: 54771 Int'l Des: 2022-175 Owner: SPXS Country: US Constellation: starlink operational
LEOCIRCULAR

实时位置

正在加载3D地球...

关于 Starlink 5451

正在加载描述...

即将过境

Passes for default location (London). Set your location on the main map for personalized predictions.

高度历史

Loading altitude history...

两行轨道根数

1 54771U 22175P 26126.32880660 -.00000608 00000-0 -20130-4 0 9997
2 54771 53.2150 140.1678 0001042 74.1092 286.0015 15.08834116188690
Epoch: May 6, 2026 • Age: 9 hours

当前状态

高度 540.9 km
速度 7.60 km/s
星下点 27.69°N, 176.13°W
发射日期 Dec 17, 2022
运行时间 3.3 years
类型 internet

技术详情

分类 Payload
质量 305.00 kg
干质量 290.00 kg
总质量 305.00 kg
长度 0.20 m
直径 2.80 m
跨度 9.00 m
形状 Box + pan
制造商 SPXS
平台类型 Starlink
阶段状态 In Orbit
所有者/国家 SPXS/US

Most Searched